Time,TemperatureF,DewpointF,PressureIn,WindDirection,WindDirectionDegrees,WindSpeedMPH,WindSpeedGustMPH,Humidity,HourlyPrecipIn,Conditions,Clouds,dailyrainin,SoftwareType,DateUTC
2013-04-20 00:00:00,36.1,31.7,30.02,West,279,10.0,12.0,84,0.00,,,0.00,Wunderground v.1.15,2013-04-20 05:00:00,
2013-04-20 00:05:00,35.9,31.8,30.02,West,263,10.0,12.0,85,0.00,,,0.00,Wunderground v.1.15,2013-04-20 05:05:00,
2013-04-20 00:10:00,35.8,31.7,30.02,West,265,9.0,9.0,85,0.00,,,0.00,Wunderground v.1.15,2013-04-20 05:10:00,
2013-04-20 00:15:00,35.8,31.7,30.02,WNW,283,10.0,10.0,85,0.00,,,0.00,Wunderground v.1.15,2013-04-20 05:15:00,
2013-04-20 00:20:00,35.6,31.5,30.03,West,263,9.0,9.0,85,0.00,,,0.00,Wunderground v.1.15,2013-04-20 05:20:00,
2013-04-20 00:25:00,35.4,31.3,30.03,West,271,9.0,9.0,85,0.00,,,0.00,Wunderground v.1.15,2013-04-20 05:25:00,
2013-04-20 00:30:00,35.4,31.3,30.03,West,273,9.0,9.0,85,0.00,,,0.00,Wunderground v.1.15,2013-04-20 05:30:00,
2013-04-20 00:35:00,35.3,31.2,30.03,West,269,9.0,10.0,85,0.00,,,0.00,Wunderground v.1.15,2013-04-20 05:35:00,
2013-04-20 00:40:00,35.3,31.2,30.04,West,271,10.0,11.0,85,0.00,,,0.00,Wunderground v.1.15,2013-04-20 05:40:00,
2013-04-20 00:45:00,35.3,31.2,30.04,WSW,255,9.0,11.0,85,0.00,,,0.00,Wunderground v.1.15,2013-04-20 05:45:00,
2013-04-20 00:55:00,35.2,31.4,30.04,West,272,9.0,11.0,86,0.00,,,0.00,Wunderground v.1.15,2013-04-20 05:55:00,
2013-04-20 01:00:00,35.1,31.3,30.04,West,273,9.0,10.0,86,0.00,,,0.00,Wunderground v.1.15,2013-04-20 06:00:00,
2013-04-20 01:05:00,35.0,31.2,30.04,West,262,9.0,10.0,86,0.00,,,0.00,Wunderground v.1.15,2013-04-20 06:05:00,
2013-04-20 01:10:00,34.9,31.1,30.05,West,271,9.0,9.0,86,0.00,,,0.00,Wunderground v.1.15,2013-04-20 06:10:00,
2013-04-20 01:15:00,34.9,31.4,30.05,West,279,8.0,9.0,87,0.00,,,0.00,Wunderground v.1.15,2013-04-20 06:15:00,
2013-04-20 01:20:00,34.9,31.4,30.05,West,268,9.0,9.0,87,0.00,,,0.00,Wunderground v.1.15,2013-04-20 06:20:00,
2013-04-20 01:25:00,34.9,31.1,30.05,West,260,9.0,9.0,86,0.00,,,0.00,Wunderground v.1.15,2013-04-20 06:25:00,
2013-04-20 06:45:00,32.9,30.8,30.20,WNW,283,4.0,4.0,92,0.00,,,0.00,Wunderground v.1.15,2013-04-20 11:45:00,
2013-04-20 06:50:00,33.0,30.9,30.20,WNW,283,4.0,4.0,92,0.00,,,0.00,Wunderground v.1.15,2013-04-20 11:50:00,
2013-04-20 06:55:00,33.1,31.0,30.20,WNW,290,4.0,4.0,92,0.00,,,0.00,Wunderground v.1.15,2013-04-20 11:55:00,
2013-04-20 07:00:00,33.3,31.5,30.20,WNW,290,4.0,4.0,93,0.00,,,0.00,Wunderground v.1.15,2013-04-20 12:00:00,
2013-04-20 07:05:00,33.4,31.3,30.20,WNW,290,4.0,4.0,92,0.00,,,0.00,Wunderground v.1.15,2013-04-20 12:05:00,
2013-04-20 07:10:00,33.6,31.5,30.21,WNW,290,5.0,5.0,92,0.00,,,0.00,Wunderground v.1.15,2013-04-20 12:10:00,
2013-04-20 07:15:00,33.8,31.7,30.21,WNW,299,5.0,6.0,92,0.00,,,0.00,Wunderground v.1.15,2013-04-20 12:15:00,
2013-04-20 07:20:00,33.9,31.8,30.21,WNW,290,5.0,5.0,92,0.00,,,0.00,Wunderground v.1.15,2013-04-20 12:20:00,
2013-04-20 07:25:00,34.1,32.0,30.22,WNW,295,5.0,5.0,92,0.00,,,0.00,Wunderground v.1.15,2013-04-20 12:25:00,
2013-04-20 07:30:00,34.2,32.1,30.22,WNW,294,5.0,6.0,92,0.00,,,0.00,Wunderground v.1.15,2013-04-20 12:30:00,
2013-04-20 07:35:00,34.4,32.3,30.22,NW,312,6.0,8.0,92,0.00,,,0.00,Wunderground v.1.15,2013-04-20 12:35:00,
2013-04-20 07:40:00,34.6,32.5,30.22,WNW,303,6.0,6.0,92,0.00,,,0.00,Wunderground v.1.15,2013-04-20 12:40:00,
2013-04-20 07:45:00,34.7,32.3,30.23,WNW,291,7.0,7.0,91,0.00,,,0.00,Wunderground v.1.15,2013-04-20 12:45:00,
2013-04-20 07:50:00,35.0,32.6,30.23,WNW,289,6.0,8.0,91,0.00,,,0.00,Wunderground v.1.15,2013-04-20 12:50:00,
2013-04-20 07:55:00,35.0,32.4,30.23,WNW,301,7.0,8.0,90,0.00,,,0.00,Wunderground v.1.15,2013-04-20 12:55:00,
2013-04-20 08:00:00,35.1,32.5,30.24,WNW,303,8.0,8.0,90,0.00,,,0.00,Wunderground v.1.15,2013-04-20 13:00:00,
2013-04-20 08:05:00,35.3,32.7,30.24,WNW,296,7.0,10.0,90,0.00,,,0.00,Wunderground v.1.15,2013-04-20 13:05:00,
2013-04-20 08:10:00,35.4,32.5,30.24,WNW,302,7.0,10.0,89,0.00,,,0.00,Wunderground v.1.15,2013-04-20 13:10:00,
2013-04-20 08:15:00,35.6,32.7,30.24,WNW,292,9.0,10.0,89,0.00,,,0.00,Wunderground v.1.15,2013-04-20 13:15:00,
2013-04-20 08:20:00,35.8,32.9,30.24,NW,321,9.0,9.0,89,0.00,,,0.00,Wunderground v.1.15,2013-04-20 13:20:00,
2013-04-20 08:25:00,35.8,32.6,30.25,NW,315,8.0,9.0,88,0.00,,,0.00,Wunderground v.1.15,2013-04-20 13:25:00,
2013-04-20 08:30:00,35.8,32.9,30.25,NNW,331,8.0,8.0,89,0.00,,,0.00,Wunderground v.1.15,2013-04-20 13:30:00,
2013-04-20 08:35:00,36.1,33.2,30.25,WNW,295,7.0,9.0,89,0.00,,,0.00,Wunderground v.1.15,2013-04-20 13:35:00,
2013-04-20 08:40:00,36.1,32.6,30.25,NW,312,7.0,8.0,87,0.00,,,0.00,Wunderground v.1.15,2013-04-20 13:40:00,
2013-04-20 08:45:00,36.2,32.4,30.25,NW,324,8.0,8.0,86,0.00,,,0.00,Wunderground v.1.15,2013-04-20 13:45:00,
2013-04-20 08:50:00,36.4,32.3,30.25,WNW,296,8.0,8.0,85,0.00,,,0.00,Wunderground v.1.15,2013-04-20 13:50:00,
2013-04-20 08:55:00,36.6,31.6,30.26,NNW,327,7.0,10.0,82,0.00,,,0.00,Wunderground v.1.15,2013-04-20 13:55:00,
2013-04-20 09:00:00,36.8,31.8,30.26,WNW,296,7.0,9.0,82,0.00,,,0.00,Wunderground v.1.15,2013-04-20 14:00:00,
2013-04-20 09:05:00,36.9,31.6,30.26,NW,306,8.0,9.0,81,0.00,,,0.00,Wunderground v.1.15,2013-04-20 14:05:00,
2013-04-20 09:10:00,36.7,30.8,30.26,WNW,290,8.0,10.0,79,0.00,,,0.00,Wunderground v.1.15,2013-04-20 14:10:00,
2013-04-20 09:15:00,36.5,29.7,30.27,WNW,300,9.0,10.0,76,0.00,,,0.00,Wunderground v.1.15,2013-04-20 14:15:00,
2013-04-20 09:20:00,36.6,30.1,30.27,NW,306,8.0,8.0,77,0.00,,,0.00,Wunderground v.1.15,2013-04-20 14:20:00,
2013-04-20 09:25:00,37.1,30.2,30.27,NW,305,8.0,8.0,76,0.00,,,0.00,Wunderground v.1.15,2013-04-20 14:25:00,
2013-04-20 09:35:00,38.0,30.8,30.28,NW,304,8.0,8.0,75,0.00,,,0.00,Wunderground v.1.15,2013-04-20 14:35:00,
2013-04-20 09:40:00,38.0,29.4,30.28,WNW,290,8.0,8.0,71,0.00,,,0.00,Wunderground v.1.15,2013-04-20 14:40:00,
2013-04-20 09:45:00,38.1,29.5,30.29,WNW,298,9.0,9.0,71,0.00,,,0.00,Wunderground v.1.15,2013-04-20 14:45:00,
2013-04-20 09:50:00,38.2,30.3,30.29,WNW,289,9.0,9.0,73,0.00,,,0.00,Wunderground v.1.15,2013-04-20 14:50:00,
2013-04-20 09:55:00,38.4,29.1,30.29,WNW,298,9.0,11.0,69,0.00,,,0.00,Wunderground v.1.15,2013-04-20 14:55:00,
2013-04-20 10:00:00,38.5,29.9,30.29,WNW,286,8.0,10.0,71,0.00,,,0.00,Wunderground v.1.15,2013-04-20 15:00:00,
2013-04-20 10:05:00,38.5,29.9,30.29,WNW,294,8.0,10.0,71,0.00,,,0.00,Wunderground v.1.15,2013-04-20 15:05:00,
2013-04-20 10:10:00,38.6,30.4,30.30,WNW,298,9.0,9.0,72,0.00,,,0.00,Wunderground v.1.15,2013-04-20 15:10:00,
2013-04-20 10:15:00,38.9,30.3,30.30,WNW,298,8.0,12.0,71,0.00,,,0.00,Wunderground v.1.15,2013-04-20 15:15:00,
2013-04-20 10:20:00,38.7,29.8,30.30,WNW,300,8.0,10.0,70,0.00,,,0.00,Wunderground v.1.15,2013-04-20 15:20:00,
2013-04-20 10:25:00,39.0,29.0,30.31,NW,314,8.0,10.0,67,0.00,,,0.00,Wunderground v.1.15,2013-04-20 15:25:00,
2013-04-20 10:30:00,39.2,29.9,30.31,West,271,9.0,9.0,69,0.00,,,0.00,Wunderground v.1.15,2013-04-20 15:30:00,
2013-04-20 10:35:00,39.1,29.4,30.31,NW,306,9.0,9.0,68,0.00,,,0.00,Wunderground v.1.15,2013-04-20 15:35:00,
2013-04-20 10:40:00,39.6,31.3,30.31,WNW,293,9.0,9.0,72,0.00,,,0.00,Wunderground v.1.15,2013-04-20 15:40:00,
2013-04-20 10:45:00,39.8,30.1,30.31,NW,306,9.0,9.0,68,0.00,,,0.00,Wunderground v.1.15,2013-04-20 15:45:00,
2013-04-20 10:50:00,39.6,29.9,30.32,NW,311,9.0,9.0,68,0.00,,,0.00,Wunderground v.1.15,2013-04-20 15:50:00,
2013-04-20 10:55:00,39.7,31.4,30.32,NNW,344,8.0,9.0,72,0.00,,,0.00,Wunderground v.1.15,2013-04-20 15:55:00,
2013-04-20 11:00:00,40.4,31.7,30.31,WNW,300,7.0,7.0,71,0.00,,,0.00,Wunderground v.1.15,2013-04-20 16:00:00,
2013-04-20 11:05:00,40.5,30.0,30.32,WNW,287,7.0,7.0,66,0.00,,,0.00,Wunderground v.1.15,2013-04-20 16:05:00,
2013-04-20 11:10:00,40.3,29.8,30.32,NW,309,7.0,8.0,66,0.00,,,0.00,Wunderground v.1.15,2013-04-20 16:10:00,
2013-04-20 11:15:00,40.3,30.2,30.32,NW,309,9.0,10.0,67,0.00,,,0.00,Wunderground v.1.15,2013-04-20 16:15:00,
2013-04-20 11:20:00,40.7,30.2,30.32,NW,326,9.0,10.0,66,0.00,,,0.00,Wunderground v.1.15,2013-04-20 16:20:00,
2013-04-20 11:25:00,40.9,29.7,30.32,NW,305,9.0,10.0,64,0.00,,,0.00,Wunderground v.1.15,2013-04-20 16:25:00,
2013-04-20 11:30:00,40.5,30.0,30.32,WNW,289,9.0,9.0,66,0.00,,,0.00,Wunderground v.1.15,2013-04-20 16:30:00,
2013-04-20 11:35:00,41.0,29.7,30.32,NNW,339,10.0,10.0,64,0.00,,,0.00,Wunderground v.1.15,2013-04-20 16:35:00,
2013-04-20 11:40:00,41.5,32.8,30.32,NNW,347,10.0,10.0,71,0.00,,,0.00,Wunderground v.1.15,2013-04-20 16:40:00,
2013-04-20 11:45:00,41.2,30.7,30.32,NW,317,10.0,15.0,66,0.00,,,0.00,Wunderground v.1.15,2013-04-20 16:45:00,
2013-04-20 11:50:00,41.4,30.9,30.32,NW,309,10.0,11.0,66,0.00,,,0.00,Wunderground v.1.15,2013-04-20 16:50:00,
2013-04-20 12:00:00,41.5,30.2,30.32,WNW,295,11.0,11.0,64,0.00,,,0.00,Wunderground v.1.15,2013-04-20 17:00:00,
2013-04-20 12:05:00,41.9,32.1,30.32,NW,306,11.0,12.0,68,0.00,,,0.00,Wunderground v.1.15,2013-04-20 17:05:00,
2013-04-20 12:10:00,41.6,29.1,30.32,NW,306,12.0,12.0,61,0.00,,,0.00,Wunderground v.1.15,2013-04-20 17:10:00,
2013-04-20 12:15:00,42.1,31.2,30.32,NW,321,10.0,12.0,65,0.00,,,0.00,Wunderground v.1.15,2013-04-20 17:15:00,
2013-04-20 12:20:00,42.6,31.7,30.32,NW,316,9.0,11.0,65,0.00,,,0.00,Wunderground v.1.15,2013-04-20 17:20:00,
2013-04-20 12:25:00,42.2,29.3,30.32,WNW,302,12.0,12.0,60,0.00,,,0.00,Wunderground v.1.15,2013-04-20 17:25:00,
2013-04-20 12:30:00,41.9,30.2,30.32,NW,317,11.0,11.0,63,0.00,,,0.00,Wunderground v.1.15,2013-04-20 17:30:00,
2013-04-20 12:35:00,41.5,29.0,30.32,WNW,284,10.0,11.0,61,0.00,,,0.00,Wunderground v.1.15,2013-04-20 17:35:00,
2013-04-20 12:40:00,41.4,29.7,30.32,WNW,282,9.0,9.0,63,0.00,,,0.00,Wunderground v.1.15,2013-04-20 17:40:00,
2013-04-20 12:45:00,41.6,31.1,30.32,NNW,336,9.0,9.0,66,0.00,,,0.00,Wunderground v.1.15,2013-04-20 17:45:00,
2013-04-20 12:50:00,42.3,29.8,30.32,West,275,9.0,9.0,61,0.00,,,0.00,Wunderground v.1.15,2013-04-20 17:50:00,
2013-04-20 12:55:00,42.1,29.2,30.32,West,279,8.0,9.0,60,0.00,,,0.00,Wunderground v.1.15,2013-04-20 17:55:00,
2013-04-20 13:00:00,42.1,30.8,30.33,WNW,300,8.0,11.0,64,0.00,,,0.00,Wunderground v.1.15,2013-04-20 18:00:00,
2013-04-20 13:05:00,41.8,30.9,30.33,NW,315,10.0,11.0,65,0.00,,,0.00,Wunderground v.1.15,2013-04-20 18:05:00,
2013-04-20 13:10:00,41.9,30.6,30.33,NW,322,10.0,10.0,64,0.00,,,0.00,Wunderground v.1.15,2013-04-20 18:10:00,
2013-04-20 13:15:00,41.9,29.0,30.33,NW,311,9.0,10.0,60,0.00,,,0.00,Wunderground v.1.15,2013-04-20 18:15:00,
2013-04-20 13:20:00,42.2,31.3,30.33,NW,316,10.0,13.0,65,0.00,,,0.00,Wunderground v.1.15,2013-04-20 18:20:00,
2013-04-20 13:25:00,42.0,30.3,30.33,NW,307,11.0,13.0,63,0.00,,,0.00,Wunderground v.1.15,2013-04-20 18:25:00,
2013-04-20 13:30:00,42.2,29.7,30.33,WNW,298,9.0,11.0,61,0.00,,,0.00,Wunderground v.1.15,2013-04-20 18:30:00,
2013-04-20 13:35:00,42.9,31.2,30.33,WNW,284,8.0,11.0,63,0.00,,,0.00,Wunderground v.1.15,2013-04-20 18:35:00,
2013-04-20 13:40:00,43.5,30.1,30.33,WNW,293,9.0,9.0,59,0.00,,,0.00,Wunderground v.1.15,2013-04-20 18:40:00,
2013-04-20 13:45:00,43.3,29.5,30.34,NW,309,9.0,10.0,58,0.00,,,0.00,Wunderground v.1.15,2013-04-20 18:45:00,
2013-04-20 13:50:00,42.8,28.6,30.34,NNW,339,8.0,8.0,57,0.00,,,0.00,Wunderground v.1.15,2013-04-20 18:50:00,
2013-04-20 13:55:00,42.7,30.2,30.34,NW,323,9.0,9.0,61,0.00,,,0.00,Wunderground v.1.15,2013-04-20 18:55:00,
2013-04-20 14:00:00,42.7,31.0,30.34,NW,311,10.0,10.0,63,0.00,,,0.00,Wunderground v.1.15,2013-04-20 19:00:00,
2013-04-20 14:05:00,42.8,29.9,30.34,West,270,8.0,10.0,60,0.00,,,0.00,Wunderground v.1.15,2013-04-20 19:05:00,
2013-04-20 14:10:00,42.9,31.6,30.34,NW,313,7.0,11.0,64,0.00,,,0.00,Wunderground v.1.15,2013-04-20 19:10:00,
2013-04-20 14:15:00,43.5,30.9,30.34,NNW,327,7.0,11.0,61,0.00,,,0.00,Wunderground v.1.15,2013-04-20 19:15:00,
2013-04-20 14:20:00,43.2,31.1,30.34,WNW,296,7.0,12.0,62,0.00,,,0.00,Wunderground v.1.15,2013-04-20 19:20:00,
2013-04-20 14:25:00,43.0,30.1,30.34,NW,315,7.0,12.0,60,0.00,,,0.00,Wunderground v.1.15,2013-04-20 19:25:00,
2013-04-20 14:30:00,43.4,31.6,30.34,West,279,9.0,10.0,63,0.00,,,0.00,Wunderground v.1.15,2013-04-20 19:30:00,
2013-04-20 14:35:00,43.7,31.1,30.34,West,266,10.0,11.0,61,0.00,,,0.00,Wunderground v.1.15,2013-04-20 19:35:00,
2013-04-20 14:40:00,44.2,32.0,30.34,West,260,8.0,8.0,62,0.00,,,0.00,Wunderground v.1.15,2013-04-20 19:40:00,
2013-04-20 14:45:00,44.2,29.9,30.34,WSW,258,7.0,8.0,57,0.00,,,0.00,Wunderground v.1.15,2013-04-20 19:45:00,
2013-04-20 14:50:00,43.9,30.5,30.34,NNW,328,7.0,7.0,59,0.00,,,0.00,Wunderground v.1.15,2013-04-20 19:50:00,
2013-04-20 14:55:00,43.7,31.9,30.34,NW,315,7.0,8.0,63,0.00,,,0.00,Wunderground v.1.15,2013-04-20 19:55:00,
2013-04-20 15:00:00,43.6,33.0,30.34,NNW,341,8.0,8.0,66,0.00,,,0.00,Wunderground v.1.15,2013-04-20 20:00:00,
2013-04-20 15:05:00,43.8,32.4,30.34,NNW,327,7.0,8.0,64,0.00,,,0.00,Wunderground v.1.15,2013-04-20 20:05:00,
2013-04-20 15:10:00,44.1,31.5,30.34,WNW,298,6.0,9.0,61,0.00,,,0.00,Wunderground v.1.15,2013-04-20 20:10:00,
2013-04-20 15:15:00,44.2,31.2,30.34,WNW,300,6.0,9.0,60,0.00,,,0.00,Wunderground v.1.15,2013-04-20 20:15:00,
2013-04-20 15:20:00,44.2,29.9,30.35,NNW,328,5.0,5.0,57,0.00,,,0.00,Wunderground v.1.15,2013-04-20 20:20:00,
2013-04-20 15:25:00,44.3,31.3,30.35,NNW,331,6.0,6.0,60,0.00,,,0.00,Wunderground v.1.15,2013-04-20 20:25:00,
2013-04-20 15:30:00,44.7,32.1,30.34,NNW,331,5.0,10.0,61,0.00,,,0.00,Wunderground v.1.15,2013-04-20 20:30:00,
2013-04-20 15:40:00,44.4,31.4,30.35,NW,304,6.0,9.0,60,0.00,,,0.00,Wunderground v.1.15,2013-04-20 20:40:00,
2013-04-20 15:45:00,44.4,33.4,30.35,NNW,347,7.0,9.0,65,0.00,,,0.00,Wunderground v.1.15,2013-04-20 20:45:00,
2013-04-20 15:50:00,44.3,32.5,30.35,NW,305,6.0,9.0,63,0.00,,,0.00,Wunderground v.1.15,2013-04-20 20:50:00,
2013-04-20 15:55:00,44.1,31.5,30.35,WNW,300,6.0,17.0,61,0.00,,,0.00,Wunderground v.1.15,2013-04-20 20:55:00,
2013-04-20 16:00:00,44.2,31.2,30.35,North,355,6.0,6.0,60,0.00,,,0.00,Wunderground v.1.15,2013-04-20 21:00:00,
2013-04-20 16:05:00,44.4,30.5,30.35,WNW,300,5.0,6.0,58,0.00,,,0.00,Wunderground v.1.15,2013-04-20 21:05:00,
2013-04-20 16:10:00,45.0,33.2,30.35,NW,321,5.0,5.0,63,0.00,,,0.00,Wunderground v.1.15,2013-04-20 21:10:00,
2013-04-20 16:15:00,45.4,31.9,30.35,WNW,288,5.0,5.0,59,0.00,,,0.00,Wunderground v.1.15,2013-04-20 21:15:00,
2013-04-20 16:20:00,45.7,33.4,30.35,WNW,303,6.0,6.0,62,0.00,,,0.00,Wunderground v.1.15,2013-04-20 21:20:00,
2013-04-20 16:25:00,45.9,31.9,30.35,NNW,346,5.0,6.0,58,0.00,,,0.00,Wunderground v.1.15,2013-04-20 21:25:00,
2013-04-20 16:30:00,46.2,31.8,30.35,WNW,287,4.0,7.0,57,0.00,,,0.00,Wunderground v.1.15,2013-04-20 21:30:00,
2013-04-20 16:35:00,45.6,31.2,30.35,WSW,246,5.0,7.0,57,0.00,,,0.00,Wunderground v.1.15,2013-04-20 21:35:00,
2013-04-20 16:40:00,45.5,32.0,30.35,NNW,338,5.0,5.0,59,0.00,,,0.00,Wunderground v.1.15,2013-04-20 21:40:00,
2013-04-20 16:45:00,45.5,33.2,30.35,North,5,5.0,7.0,62,0.00,,,0.00,Wunderground v.1.15,2013-04-20 21:45:00,
2013-04-20 16:50:00,45.8,31.9,30.35,NNE,17,4.0,4.0,58,0.00,,,0.00,Wunderground v.1.15,2013-04-20 21:50:00,
2013-04-20 16:55:00,46.5,32.9,30.35,North,5,4.0,4.0,59,0.00,,,0.00,Wunderground v.1.15,2013-04-20 21:55:00,
2013-04-20 17:00:00,47.1,33.9,30.35,North,5,5.0,5.0,60,0.00,,,0.00,Wunderground v.1.15,2013-04-20 22:00:00,
2013-04-20 17:05:00,47.3,33.3,30.35,NNW,344,5.0,5.0,58,0.00,,,0.00,Wunderground v.1.15,2013-04-20 22:05:00,
2013-04-20 17:10:00,46.9,32.0,30.35,NNW,344,5.0,5.0,56,0.00,,,0.00,Wunderground v.1.15,2013-04-20 22:10:00,
2013-04-20 17:15:00,46.4,31.5,30.35,North,5,5.0,5.0,56,0.00,,,0.00,Wunderground v.1.15,2013-04-20 22:15:00,
2013-04-20 17:25:00,47.1,31.7,30.35,NNW,329,3.0,4.0,55,0.00,,,0.00,Wunderground v.1.15,2013-04-20 22:25:00,
2013-04-20 17:30:00,47.0,30.7,30.35,NNW,328,5.0,5.0,53,0.00,,,0.00,Wunderground v.1.15,2013-04-20 22:30:00,
2013-04-20 17:35:00,46.2,30.9,30.35,NW,321,5.0,5.0,55,0.00,,,0.00,Wunderground v.1.15,2013-04-20 22:35:00,
2013-04-20 17:40:00,45.7,31.3,30.35,NNW,327,4.0,5.0,57,0.00,,,0.00,Wunderground v.1.15,2013-04-20 22:40:00,
2013-04-20 17:45:00,45.4,30.6,30.35,NW,314,5.0,6.0,56,0.00,,,0.00,Wunderground v.1.15,2013-04-20 22:45:00,
2013-04-20 17:50:00,45.0,30.2,30.35,North,5,5.0,6.0,56,0.00,,,0.00,Wunderground v.1.15,2013-04-20 22:50:00,
2013-04-20 17:55:00,45.4,29.7,30.35,North,5,4.0,11.0,54,0.00,,,0.00,Wunderground v.1.15,2013-04-20 22:55:00,
2013-04-20 18:00:00,46.0,30.3,30.35,NNW,337,4.0,4.0,54,0.00,,,0.00,Wunderground v.1.15,2013-04-20 23:00:00,
2013-04-20 18:05:00,46.4,29.7,30.36,NW,318,3.0,5.0,52,0.00,,,0.00,Wunderground v.1.15,2013-04-20 23:05:00,
2013-04-20 18:10:00,45.9,29.2,30.35,NW,322,3.0,3.0,52,0.00,,,0.00,Wunderground v.1.15,2013-04-20 23:10:00,
2013-04-20 18:15:00,45.4,31.9,30.36,NNW,344,3.0,3.0,59,0.00,,,0.00,Wunderground v.1.15,2013-04-20 23:15:00,
2013-04-20 18:20:00,45.4,31.5,30.36,NNW,342,3.0,3.0,58,0.00,,,0.00,Wunderground v.1.15,2013-04-20 23:20:00,
2013-04-20 18:25:00,45.4,32.3,30.36,NNW,338,3.0,3.0,60,0.00,,,0.00,Wunderground v.1.15,2013-04-20 23:25:00,
2013-04-20 18:30:00,45.2,31.7,30.36,North,355,2.0,4.0,59,0.00,,,0.00,Wunderground v.1.15,2013-04-20 23:30:00,
2013-04-20 18:40:00,45.3,30.1,30.36,North,5,2.0,2.0,55,0.00,,,0.00,Wunderground v.1.15,2013-04-20 23:40:00,
2013-04-20 18:45:00,45.5,30.3,30.36,North,351,3.0,3.0,55,0.00,,,0.00,Wunderground v.1.15,2013-04-20 23:45:00,
2013-04-20 18:50:00,45.7,30.0,30.36,NNW,343,2.0,3.0,54,0.00,,,0.00,Wunderground v.1.15,2013-04-20 23:50:00,
2013-04-20 18:55:00,45.8,30.1,30.36,North,355,2.0,10.0,54,0.00,,,0.00,Wunderground v.1.15,2013-04-20 23:55:00,
2013-04-20 19:00:00,45.8,31.0,30.36,North,355,1.0,1.0,56,0.00,,,0.00,Wunderground v.1.15,2013-04-21 00:00:00,
2013-04-20 19:10:00,45.3,30.5,30.37,North,355,0.0,0.0,56,0.00,,,0.00,Wunderground v.1.15,2013-04-21 00:10:00,
2013-04-20 19:15:00,44.8,30.0,30.37,North,355,0.0,1.0,56,0.00,,,0.00,Wunderground v.1.15,2013-04-21 00:15:00,
2013-04-20 19:20:00,44.5,31.1,30.37,North,355,0.0,0.0,59,0.00,,,0.00,Wunderground v.1.15,2013-04-21 00:20:00,
2013-04-20 19:25:00,44.1,31.5,30.37,North,355,0.0,0.0,61,0.00,,,0.00,Wunderground v.1.15,2013-04-21 00:25:00,
2013-04-20 19:30:00,43.8,30.0,30.37,North,355,0.0,0.0,58,0.00,,,0.00,Wunderground v.1.15,2013-04-21 00:30:00,
2013-04-20 19:35:00,43.6,31.4,30.37,North,355,0.0,0.0,62,0.00,,,0.00,Wunderground v.1.15,2013-04-21 00:35:00,
2013-04-20 19:40:00,43.4,30.4,30.38,North,360,1.0,1.0,60,0.00,,,0.00,Wunderground v.1.15,2013-04-21 00:40:00,
2013-04-20 19:45:00,43.3,29.9,30.38,North,360,1.0,1.0,59,0.00,,,0.00,Wunderground v.1.15,2013-04-21 00:45:00,
2013-04-20 19:50:00,43.2,29.4,30.39,North,360,1.0,1.0,58,0.00,,,0.00,Wunderground v.1.15,2013-04-21 00:50:00,
2013-04-20 19:55:00,43.1,29.3,30.39,North,360,1.0,1.0,58,0.00,,,0.00,Wunderground v.1.15,2013-04-21 00:55:00,
2013-04-20 20:00:00,43.1,30.6,30.39,North,360,0.0,0.0,61,0.00,,,0.00,Wunderground v.1.15,2013-04-21 01:00:00,
2013-04-20 20:05:00,42.9,31.2,30.39,North,360,0.0,0.0,63,0.00,,,0.00,Wunderground v.1.15,2013-04-21 01:05:00,
2013-04-20 20:10:00,42.8,31.8,30.39,North,360,0.0,0.0,65,0.00,,,0.00,Wunderground v.1.15,2013-04-21 01:10:00,
2013-04-20 20:15:00,42.5,30.8,30.39,North,360,0.0,0.0,63,0.00,,,0.00,Wunderground v.1.15,2013-04-21 01:15:00,
2013-04-20 20:20:00,42.3,30.2,30.40,North,360,0.0,0.0,62,0.00,,,0.00,Wunderground v.1.15,2013-04-21 01:20:00,
2013-04-20 20:25:00,42.1,30.8,30.40,North,360,0.0,1.0,64,0.00,,,0.00,Wunderground v.1.15,2013-04-21 01:25:00,
2013-04-20 20:30:00,41.9,33.2,30.41,North,360,1.0,2.0,71,0.00,,,0.00,Wunderground v.1.15,2013-04-21 01:30:00,
2013-04-20 20:35:00,41.8,33.8,30.41,North,360,1.0,2.0,73,0.00,,,0.00,Wunderground v.1.15,2013-04-21 01:35:00,
2013-04-20 20:40:00,41.7,33.7,30.41,North,360,1.0,1.0,73,0.00,,,0.00,Wunderground v.1.15,2013-04-21 01:40:00,
2013-04-20 20:45:00,41.5,33.1,30.42,North,360,0.0,1.0,72,0.00,,,0.00,Wunderground v.1.15,2013-04-21 01:45:00,
2013-04-20 20:50:00,41.4,33.0,30.42,North,360,1.0,2.0,72,0.00,,,0.00,Wunderground v.1.15,2013-04-21 01:50:00,
2013-04-20 20:55:00,41.4,34.1,30.42,North,360,2.0,2.0,75,0.00,,,0.00,Wunderground v.1.15,2013-04-21 01:55:00,
2013-04-20 21:00:00,41.2,34.5,30.42,North,360,1.0,1.0,77,0.00,,,0.00,Wunderground v.1.15,2013-04-21 02:00:00,
2013-04-20 21:05:00,40.7,33.7,30.42,North,360,1.0,1.0,76,0.00,,,0.00,Wunderground v.1.15,2013-04-21 02:05:00,
2013-04-20 21:10:00,40.4,32.4,30.43,North,360,0.0,0.0,73,0.00,,,0.00,Wunderground v.1.15,2013-04-21 02:10:00,
2013-04-20 21:15:00,40.3,32.3,30.43,North,360,0.0,0.0,73,0.00,,,0.00,Wunderground v.1.15,2013-04-21 02:15:00,
2013-04-20 21:20:00,40.4,32.1,30.43,North,360,0.0,0.0,72,0.00,,,0.00,Wunderground v.1.15,2013-04-21 02:20:00,
2013-04-20 21:25:00,40.5,32.2,30.43,North,360,0.0,0.0,72,0.00,,,0.00,Wunderground v.1.15,2013-04-21 02:25:00,
2013-04-20 21:30:00,40.4,32.1,30.44,North,360,0.0,0.0,72,0.00,,,0.00,Wunderground v.1.15,2013-04-21 02:30:00,
2013-04-20 21:35:00,40.3,32.7,30.44,North,360,0.0,0.0,74,0.00,,,0.00,Wunderground v.1.15,2013-04-21 02:35:00,
2013-04-20 21:40:00,40.1,33.5,30.44,North,360,0.0,0.0,77,0.00,,,0.00,Wunderground v.1.15,2013-04-21 02:40:00,
2013-04-20 21:45:00,39.8,33.5,30.44,North,360,0.0,0.0,78,0.00,,,0.00,Wunderground v.1.15,2013-04-21 02:45:00,
2013-04-20 21:50:00,39.5,33.5,30.44,North,360,0.0,0.0,79,0.00,,,0.00,Wunderground v.1.15,2013-04-21 02:50:00,
2013-04-20 21:55:00,39.1,33.5,30.44,North,360,0.0,2.0,80,0.00,,,0.00,Wunderground v.1.15,2013-04-21 02:55:00,
2013-04-20 22:00:00,38.9,33.3,30.45,North,360,0.0,0.0,80,0.00,,,0.00,Wunderground v.1.15,2013-04-21 03:00:00,
2013-04-20 22:05:00,38.7,33.1,30.45,North,360,0.0,0.0,80,0.00,,,0.00,Wunderground v.1.15,2013-04-21 03:05:00,
2013-04-20 22:10:00,38.5,32.9,30.45,North,360,0.0,0.0,80,0.00,,,0.00,Wunderground v.1.15,2013-04-21 03:10:00,
2013-04-20 22:15:00,38.4,33.1,30.45,North,360,0.0,0.0,81,0.00,,,0.00,Wunderground v.1.15,2013-04-21 03:15:00,
2013-04-20 22:20:00,38.3,32.7,30.45,North,360,0.0,0.0,80,0.00,,,0.00,Wunderground v.1.15,2013-04-21 03:20:00,
2013-04-20 22:25:00,38.3,32.4,30.45,North,360,0.0,0.0,79,0.00,,,0.00,Wunderground v.1.15,2013-04-21 03:25:00,
2013-04-20 22:30:00,38.2,32.6,30.45,North,360,0.0,0.0,80,0.00,,,0.00,Wunderground v.1.15,2013-04-21 03:30:00,
2013-04-20 22:35:00,38.1,33.1,30.45,North,360,0.0,0.0,82,0.00,,,0.00,Wunderground v.1.15,2013-04-21 03:35:00,
2013-04-20 22:40:00,37.9,32.9,30.45,North,360,0.0,0.0,82,0.00,,,0.00,Wunderground v.1.15,2013-04-21 03:40:00,
2013-04-20 22:45:00,37.7,32.7,30.45,North,360,0.0,0.0,82,0.00,,,0.00,Wunderground v.1.15,2013-04-21 03:45:00,
2013-04-20 22:50:00,37.5,32.8,30.45,North,360,0.0,0.0,83,0.00,,,0.00,Wunderground v.1.15,2013-04-21 03:50:00,
2013-04-20 23:00:00,37.4,32.4,30.45,North,360,0.0,0.0,82,0.00,,,0.00,Wunderground v.1.15,2013-04-21 04:00:00,
2013-04-20 23:05:00,37.3,32.0,30.45,North,360,0.0,0.0,81,0.00,,,0.00,Wunderground v.1.15,2013-04-21 04:05:00,
2013-04-20 23:10:00,37.2,31.9,30.45,North,360,0.0,0.0,81,0.00,,,0.00,Wunderground v.1.15,2013-04-21 04:10:00,
2013-04-20 23:15:00,37.1,31.5,30.46,North,360,0.0,0.0,80,0.00,,,0.00,Wunderground v.1.15,2013-04-21 04:15:00,
2013-04-20 23:20:00,37.4,31.5,30.46,North,360,0.0,2.0,79,0.00,,,0.00,Wunderground v.1.15,2013-04-21 04:20:00,
2013-04-20 23:25:00,37.7,31.5,30.46,NE,34,1.0,2.0,78,0.00,,,0.00,Wunderground v.1.15,2013-04-21 04:25:00,
2013-04-20 23:30:00,37.9,31.3,30.46,ENE,66,2.0,3.0,77,0.00,,,0.00,Wunderground v.1.15,2013-04-21 04:30:00,
2013-04-20 23:35:00,38.0,31.1,30.46,East,85,3.0,3.0,76,0.00,,,0.00,Wunderground v.1.15,2013-04-21 04:35:00,
2013-04-20 23:40:00,38.0,31.1,30.46,East,82,3.0,3.0,76,0.00,,,0.00,Wunderground v.1.15,2013-04-21 04:40:00,
2013-04-20 23:45:00,37.9,30.7,30.46,ENE,74,3.0,4.0,75,0.00,,,0.00,Wunderground v.1.15,2013-04-21 04:45:00,
2013-04-20 23:50:00,37.8,30.6,30.46,ENE,74,3.0,3.0,75,0.00,,,0.00,Wunderground v.1.15,2013-04-21 04:50:00,
2013-04-20 23:55:00,37.6,30.4,30.46,ENE,78,3.0,3.0,75,0.00,,,0.00,Wunderground v.1.15,2013-04-21 04:55:00,